• In Czech Republic
  • List of Countries
  • For 7 days
  • Water Temperature
  • Satellite Maps
  • Weather Map
  • Weather Widgets
  • user-avatar
    Login

    Hourly Weather Prutz

    Today, 20 September, Wednesday

    Time Temperature Precipitation Wind Pressure Humidity
    00:00 +1°C° 0.3 mm 2 mps 633 mmHg 96%
    01:00 +2°C° 0 mm 2 mps 633 mmHg 96%
    02:00 +2°C° 0.3 mm 2 mps 633 mmHg 96%
    03:00 +2°C° 0.3 mm 2 mps 633 mmHg 96%
    04:00 +2°C° 0.3 mm 2 mps 633 mmHg 96%
    05:00 +2°C° 0.2 mm 2 mps 633 mmHg 95%
    06:00 +2°C° 0.2 mm 2 mps 633 mmHg 94%
    07:00 +2°C° 0 mm 3 mps 633 mmHg 95%
    08:00 +2°C° 0.2 mm 3 mps 634 mmHg 91%
    09:00 +4°C° 0.2 mm 2 mps 634 mmHg 87%
    10:00 +5°C° 0.2 mm 2 mps 634 mmHg 82%
    11:00 +6°C° 0.2 mm 2 mps 634 mmHg 80%
    12:00 +6°C° 0.2 mm 2 mps 635 mmHg 78%
    13:00 +5°C° 0 mm 3 mps 635 mmHg 80%
    14:00 +5°C° 0.1 mm 3 mps 635 mmHg 79%
    15:00 +6°C° 0.1 mm 2 mps 634 mmHg 78%
    16:00 +6°C° 0.1 mm 2 mps 634 mmHg 77%
    17:00 +5°C° 0 mm 2 mps 634 mmHg 82%
    18:00 +4°C° 0 mm 1 mps 634 mmHg 88%
    19:00 +3°C° 0 mm 1 mps 634 mmHg 93%
    20:00 +2°C° 0 mm 1 mps 634 mmHg 94%
    21:00 +2°C° 0 mm 1 mps 634 mmHg 94%
    22:00 +1°C° 0 mm 1 mps 635 mmHg 95%
    23:00 +1°C° 0 mm 1 mps 634 mmHg 93%

    Tomorrow, 21 September, Thursday

    Time Temperature Precipitation Wind Pressure Humidity
    00:00 0°C° 0 mm 1 mps 634 mmHg 92%
    01:00 0°C° 0 mm 1 mps 634 mmHg 90%
    02:00 0°C° 0 mm 1 mps 634 mmHg 87%
    03:00 0°C° 0 mm 1 mps 634 mmHg 84%
    04:00 0°C° 0 mm 1 mps 634 mmHg 81%
    05:00 +1°C° 0 mm 1 mps 634 mmHg 77%
    06:00 +1°C° 0 mm 1 mps 634 mmHg 73%
    07:00 +2°C° 0 mm 1 mps 634 mmHg 69%
    08:00 +5°C° 0 mm 1 mps 635 mmHg 63%
    09:00 +8°C° 0 mm 1 mps 636 mmHg 57%
    10:00 +11°C° 0 mm 1 mps 636 mmHg 50%
    11:00 +11°C° 0 mm 1 mps 637 mmHg 49%
    12:00 +12°C° 0 mm 1 mps 637 mmHg 48%
    13:00 +13°C° 0 mm 1 mps 637 mmHg 48%
    14:00 +13°C° 0 mm 1 mps 636 mmHg 49%
    15:00 +13°C° 0 mm 2 mps 636 mmHg 51%
    16:00 +12°C° 0 mm 2 mps 636 mmHg 52%
    17:00 +10°C° 0 mm 1 mps 635 mmHg 62%
    18:00 +7°C° 0 mm 1 mps 634 mmHg 71%
    19:00 +5°C° 0 mm 1 mps 634 mmHg 80%
    20:00 +4°C° 0 mm 1 mps 634 mmHg 79%
    21:00 +4°C° 0 mm 1 mps 634 mmHg 78%
    22:00 +4°C° 0 mm 1 mps 635 mmHg 77%
    23:00 +4°C° 0 mm 1 mps 635 mmHg 75%

    Day after tomorrow, 22 September, Friday

    Time Temperature Precipitation Wind Pressure Humidity
    00:00 +4°C° 0 mm 1 mps 635 mmHg 72%
    01:00 +4°C° 0 mm 1 mps 635 mmHg 70%
    02:00 +4°C° 0 mm 1 mps 635 mmHg 68%
    03:00 +4°C° 0 mm 1 mps 635 mmHg 67%
    04:00 +4°C° 0 mm 1 mps 635 mmHg 65%
    05:00 +5°C° 0 mm 1 mps 635 mmHg 65%
    06:00 +5°C° 0 mm 1 mps 635 mmHg 64%
    07:00 +6°C° 0 mm 1 mps 635 mmHg 63%
    08:00 +9°C° 0 mm 1 mps 636 mmHg 59%
    09:00 +11°C° 0 mm 1 mps 637 mmHg 55%
    10:00 +14°C° 0 mm 1 mps 638 mmHg 50%
    11:00 +14°C° 0 mm 1 mps 638 mmHg 50%
    12:00 +15°C° 0 mm 1 mps 638 mmHg 50%
    13:00 +16°C° 0 mm 2 mps 638 mmHg 49%
    14:00 +15°C° 0 mm 2 mps 638 mmHg 52%
    15:00 +15°C° 0 mm 2 mps 638 mmHg 56%
    16:00 +14°C° 0 mm 2 mps 638 mmHg 59%
    17:00 +12°C° 0 mm 1 mps 637 mmHg 68%
    18:00 +9°C° 0 mm 1 mps 637 mmHg 78%
    19:00 +7°C° 0 mm 1 mps 636 mmHg 87%
    20:00 +7°C° 0 mm 1 mps 636 mmHg 88%
    21:00 +7°C° 0 mm 1 mps 637 mmHg 88%
    22:00 +6°C° 0 mm 1 mps 637 mmHg 89%
    23:00 +6°C° 0 mm 1 mps 637 mmHg 89%

    23 September, Saturday

    Time Temperature Precipitation Wind Pressure Humidity
    00:00 +6°C° 0 mm 1 mps 637 mmHg 89%
    01:00 +6°C° 0 mm 1 mps 637 mmHg 88%
    02:00 +6°C° 0 mm 1 mps 637 mmHg 87%
    03:00 +6°C° 0 mm 1 mps 636 mmHg 87%
    04:00 +6°C° 0 mm 1 mps 636 mmHg 86%
    05:00 +6°C° 0.1 mm 1 mps 637 mmHg 85%
    06:00 +7°C° 0.1 mm 1 mps 637 mmHg 84%
    07:00 +7°C° 0.1 mm 1 mps 637 mmHg 83%
    08:00 +9°C° 0.1 mm 1 mps 637 mmHg 76%
    09:00 +11°C° 0.1 mm 1 mps 638 mmHg 69%
    10:00 +12°C° 0.1 mm 0 mps 638 mmHg 62%
    11:00 +13°C° 0.1 mm 1 mps 638 mmHg 61%
    12:00 +14°C° 0.1 mm 1 mps 638 mmHg 60%
    13:00 +15°C° 0.1 mm 1 mps 638 mmHg 59%
    14:00 +14°C° 0.4 mm 1 mps 638 mmHg 64%
    15:00 +13°C° 0.4 mm 1 mps 637 mmHg 69%
    16:00 +13°C° 0.4 mm 1 mps 637 mmHg 74%
    17:00 +11°C° 0.5 mm 1 mps 636 mmHg 81%
    18:00 +9°C° 0.5 mm 1 mps 636 mmHg 87%
    19:00 +7°C° 0.5 mm 0 mps 636 mmHg 94%
    20:00 +6°C° 0.1 mm 0 mps 636 mmHg 94%
    21:00 +6°C° 0.1 mm 0 mps 636 mmHg 94%
    22:00 +5°C° 0.1 mm 0 mps 636 mmHg 94%
    23:00 +6°C° 0 mm 1 mps 635 mmHg 94%

    24 September, Sunday

    Time Temperature Precipitation Wind Pressure Humidity
    00:00 +6°C° 0 mm 1 mps 635 mmHg 94%
    01:00 +5°C° 0 mm 1 mps 635 mmHg 94%
    02:00 +5°C° 0 mm 1 mps 635 mmHg 93%
    03:00 +5°C° 0 mm 1 mps 635 mmHg 93%
    04:00 +5°C° 0 mm 1 mps 635 mmHg 92%
    05:00 +5°C° 0 mm 1 mps 635 mmHg 91%
    06:00 +6°C° 0 mm 1 mps 635 mmHg 90%
    07:00 +6°C° 0 mm 1 mps 635 mmHg 89%
    08:00 +8°C° 0 mm 1 mps 636 mmHg 82%
    09:00 +10°C° 0 mm 1 mps 637 mmHg 75%
    10:00 +12°C° 0 mm 1 mps 638 mmHg 68%
    11:00 +13°C° 0.2 mm 1 mps 638 mmHg 64%
    12:00 +13°C° 0.2 mm 1 mps 638 mmHg 61%
    13:00 +14°C° 0.2 mm 2 mps 638 mmHg 57%
    14:00 +14°C° 0.3 mm 2 mps 637 mmHg 59%
    15:00 +13°C° 0.3 mm 2 mps 637 mmHg 62%
    16:00 +13°C° 0.3 mm 2 mps 637 mmHg 65%
    17:00 +10°C° 0.1 mm 2 mps 636 mmHg 73%
    18:00 +8°C° 0.1 mm 1 mps 636 mmHg 81%
    19:00 +6°C° 0.1 mm 1 mps 635 mmHg 90%
    20:00 +6°C° 0 mm 1 mps 635 mmHg 90%
    21:00 +6°C° 0 mm 1 mps 635 mmHg 91%
    22:00 +5°C° 0 mm 1 mps 635 mmHg 92%
    23:00 +5°C° 0 mm 1 mps 635 mmHg 90%

    25 September, Monday

    Time Temperature Precipitation Wind Pressure Humidity
    00:00 +5°C° 0 mm 1 mps 635 mmHg 88%
    01:00 +4°C° 0 mm 1 mps 635 mmHg 86%
    02:00 +4°C° 0 mm 1 mps 635 mmHg 83%
    03:00 +4°C° 0 mm 1 mps 634 mmHg 79%
    04:00 +4°C° 0 mm 1 mps 634 mmHg 75%
    05:00 +4°C° 0 mm 1 mps 634 mmHg 72%
    06:00 +5°C° 0 mm 1 mps 634 mmHg 69%
    07:00 +5°C° 0 mm 1 mps 634 mmHg 66%
    08:00 +8°C° 0 mm 1 mps 635 mmHg 59%
    09:00 +11°C° 0 mm 1 mps 636 mmHg 52%
    10:00 +13°C° 0 mm 1 mps 637 mmHg 45%
    11:00 +14°C° 0 mm 1 mps 636 mmHg 43%
    12:00 +15°C° 0 mm 1 mps 636 mmHg 42%
    13:00 +15°C° 0 mm 1 mps 636 mmHg 40%
    14:00 +15°C° 0 mm 1 mps 636 mmHg 44%
    15:00 +15°C° 0 mm 1 mps 635 mmHg 47%
    16:00 +14°C° 0 mm 2 mps 635 mmHg 51%
    17:00 +12°C° 0 mm 1 mps 634 mmHg 61%
    18:00 +9°C° 0 mm 1 mps 634 mmHg 72%
    19:00 +6°C° 0 mm 0 mps 633 mmHg 83%
    20:00 +6°C° 0 mm 1 mps 633 mmHg 82%
    21:00 +6°C° 0 mm 1 mps 633 mmHg 82%
    22:00 +6°C° 0 mm 1 mps 633 mmHg 82%
    23:00 +6°C° 0 mm 1 mps 633 mmHg 81%
    Show more